Regional Weather Roundup
Issued by NWS Memphis, TN

Home | Current Version | Previous Version | Text Only | Print | Product List | Glossary On
Versions: 1 2 3 4 5 6 7 8 9 10 11 12 13 14 15 16 17 18 19 20 21 22 23 24 25 26 27 28 29 30 31 32 33 34 35 36 37 38 39 40 41 42 43 44 45 46 47 48 49 50
000
ASUS44 KMEG 030010
RWRMEG
MEMPHIS CWA HOURLY WEATHER ROUNDUP
NATIONAL WEATHER SERVICE MEMPHIS TN
700 PM CDT TUE JUN 02 2020

...WEST TENNESSEE...

CITY           SKY/WX    TMP DP  RH WIND       PRES   REMARKS
MEMPHIS INTL   PTSUNNY   84  62  47 SW7       30.03S
6HR MIN TEMP:  84; 6HR MAX TEMP:  89;

NWS MEMPHIS      N/A     88 N/A N/A MISG        N/A
JACKSON        MOSUNNY   83  62  49 S3        30.05S
6HR MIN TEMP:  83; 6HR MAX TEMP:  88;

COVINGTON      SUNNY     84  59  42 SW8       30.03R
BOLIVAR        SUNNY     84  66  54 CALM      30.04S
LEXINGTON      SUNNY     84  63  48 SW6       30.04R
SELMER         SUNNY     84  68  58 CALM      30.05S
DYERSBURG      MOSUNNY   86  56  35 S5        30.03F
6HR MIN TEMP:  84; 6HR MAX TEMP:  89;

UNION CITY     SUNNY     86  55  35 S5        30.01S
PARIS          SUNNY     82  55  39 SW5       30.03S
HUNTINGDON     SUNNY     84  61  45 S6        30.03S


...EASTERN ARKANSAS...

CITY           SKY/WX    TMP DP  RH WIND       PRES   REMARKS
JONESBORO      NOT AVBL
WEST MEMPHIS   MOSUNNY   86  63  45 S7        30.01F
6HR MIN TEMP:  86; 6HR MAX TEMP:  90;

BATESVILLE     PTSUNNY   83  66  56 S3        30.03S
6HR MIN TEMP:  83; 6HR MAX TEMP:  87;

NEWPORT        PTSUNNY   82  61  48 SW8       30.02S
6HR MIN TEMP:  82; 6HR MAX TEMP:  87;

WALNUT RIDGE   MOSUNNY   85  62  46 SW8       30.01S
6HR MIN TEMP:  85; 6HR MAX TEMP:  89;

BLYTHEVILLE    MOSUNNY   87  56  34 S13       30.01S
6HR MIN TEMP:  85; 6HR MAX TEMP:  91;

SEARCY         PTSUNNY   82  65  56 S6        30.03S
6HR MIN TEMP:  82; 6HR MAX TEMP:  89;

STUTTGART      PTSUNNY   84  63  49 SW7       30.04S
6HR MIN TEMP:  83; 6HR MAX TEMP:  86;

PINE BLUFF     MOSUNNY   83  63  50 SW3       30.03F
6HR MIN TEMP:  81; 6HR MAX TEMP:  85;

MONTICELLO     PTSUNNY   86  69  56 CALM      30.03S HX  90
6HR MIN TEMP:  83; 6HR MAX TEMP:  88;



...NORTH MISSISSIPPI...

CITY           SKY/WX    TMP DP  RH WIND       PRES   REMARKS
TUPELO         PTSUNNY   87  68  52 CALM      30.04S HX  90
6HR MIN TEMP:  87; 6HR MAX TEMP:  92;

OXFORD         PTSUNNY   81  68  65 CALM      30.06S
BATESVILLE     PTSUNNY   82  73  74 CALM      30.03S
OLIVE BRANCH   PTSUNNY   84  64  51 SW3       30.03F
TUNICA         PTSUNNY   82  63  51 W5        30.03S
CLARKSDALE       N/A     86  64  48 CALM      30.03S
CORINTH        PTSUNNY   86  66  51 CALM      30.04S
GREENWOOD      PTSUNNY   87  73  62 CALM      30.02S HX  94
6HR MIN TEMP:  87; 6HR MAX TEMP:  92;

COLUMBUS       PTSUNNY   85  72  63 CALM      30.04R HX  91
6HR MIN TEMP:  85; 6HR MAX TEMP:  91;

STARKVILLE     MOSUNNY   86  68  54 CALM      30.05S
GOLDEN TRIANGL SUNNY     86  70  58 E6        30.05R HX  90


...SOUTHEAST MISSOURI...

CITY           SKY/WX    TMP DP  RH WIND       PRES   REMARKS
KENNETT        MOSUNNY   88  55  33 W12       30.01S
MALDEN         SUNNY     88  54  31 SW8       30.02S
WEST PLAINS    SUNNY     82  64  54 SW5       30.05F
6HR MIN TEMP:  81; 6HR MAX TEMP:  85;

POPLAR BLUFF   SUNNY     85  57  38 W7        30.00S
6HR MIN TEMP:  83; 6HR MAX TEMP:  88;

CAPE GIRARDEAU MOSUNNY   84  58  40 S6        29.99F
6HR MIN TEMP:  84; 6HR MAX TEMP:  88;



...NORTHWEST ALABAMA...

CITY           SKY/WX    TMP DP  RH WIND       PRES   REMARKS
MUSCLE SHOALS  MOSUNNY   87  64  46 SW5       30.05S
6HR MIN TEMP:  86; 6HR MAX TEMP:  92;



...MIDDLE TENNESSEE...

CITY           SKY/WX    TMP DP  RH WIND       PRES   REMARKS
NASHVILLE      MOSUNNY   87  61  41 SW7       30.04S
6HR MIN TEMP:  87; 6HR MAX TEMP:  91;

CLARKSVILLE    MOSUNNY   82  62  50 SW5       30.04R
6HR MIN TEMP:  82; 6HR MAX TEMP:  87;

DICKSON        SUNNY     82  72  69 SW6G13    30.05S
COLUMBIA       SUNNY     84  63  48 SW8       30.04R
LAWRENCEBURG   SUNNY     84  64  51 SW3       30.06S
LEWISBURG      CLEAR     84  64  51 SW3       30.05S


...WESTERN KENTUCKY...

CITY           SKY/WX    TMP DP  RH WIND       PRES   REMARKS
PADUCAH        PTSUNNY   83  55  38 S5        30.01S
6HR MIN TEMP:  83; 6HR MAX TEMP:  89;

FORT CAMPBELL  MOSUNNY   81  62  51 SW8       30.03S
6HR MIN TEMP:  81; 6HR MAX TEMP:  86;



...CENTRAL ARKANSAS...

CITY           SKY/WX    TMP DP  RH WIND       PRES   REMARKS
LITTLE ROCK    PTSUNNY   80  67  64 S6        30.03S
6HR MIN TEMP:  80; 6HR MAX TEMP:  86;



SKY/WX REPORTED AS FAIR MEANS FEW OR NO CLOUDS BELOW
12 THOUSAND FEET.




USA.gov is the U.S. government's official web portal to all federal, state and local government web resources and services.